Havre, MT

9:50 AM MDT on August 20, 2017 (GMT -0600)
Havre City-County

Weather History for KHVR - February, 2013

Change the Weather History Date:

Saturday, February 2, 2013

  Actual Average Record
Temperature  
Mean Temperature 32 °F 20 °F  
Max Temperature 36 °F 31 °F 67 °F (1962)
Min Temperature 27 °F 9 °F -48 °F (1905)
Degree Days  
Heating Degree Days 33 45  
Month to date heating degree days 74 90  
Since 1 July heating degree days 4844 5013  
Cooling Degree Days 0 0  
Month to date cooling degree days 0 0  
Year to date cooling degree days 0 0  
Moisture  
Dew Point 24 °F    
Average Humidity 71    
Maximum Humidity 78    
Minimum Humidity 64    
Precipitation  
Precipitation 0.00 in 0.01 in 0.29 in (1895)
Month to date precipitation 0.32 0.02  
Year to date precipitation 1.42 0.35  
Snow  
Snow 0.00 in 0.20 in 3.00 in (1895)
Month to date snowfall 1.0 0.4  
Since 1 July snowfall 43.9 22.5  
Snow Depth 4.00 in    
Sea Level Pressure  
Sea Level Pressure 30.23 in    
Wind  
Wind Speed 15 mph (SW)    
Max Wind Speed 28 mph    
Max Gust Speed 31 mph    
Visibility 10 miles    
Events      
T = Trace of Precipitation, MM = Missing Value Source: NWS Daily Summary

Daily Weather History Graph

Daily Weather History Graph

Search for Another Location

Airport or City:

Trip Planner

Search our weather history database for the weather conditions in past years. The results will help you decide how hot, cold, wet, or windy it might be!

Date:

Astronomy

Feb. 02, 2013 Rise Set
Actual Time 7:46 AM MST 5:19 PM MST
Civil Twilight 7:12 AM MST 5:53 PM MST
Nautical Twilight 6:35 AM MST 6:31 PM MST
Astronomical Twilight 5:58 AM MST 7:07 PM MST
Moon 12:05 AM MST (2/2) 10:21 AM MST (2/2)
Length of Visible Light 10h 40m
Length of Day
9h 33m
Waning Gibbous, 59% of the Moon is Illuminated
Feb 2
Waning Gibbous
Feb 3
Last Quarter
Feb 10
New
Feb 17
First Quarter
Feb 25
Full

Hourly Weather History & Observations

Time (MST) Temp. Windchill Dew Point Humidity Pressure Visibility Wind Dir Wind Speed Gust Speed Precip Events Conditions
12:53 AM 30.9 °F 20.7 °F 23.0 °F 72% 30.21 in 10.0 mi SW 13.8 mph - N/A   Scattered Clouds
1:53 AM 28.0 °F 15.7 °F 21.0 °F 75% 30.22 in 10.0 mi SW 17.3 mph - N/A   Clear
2:53 AM 27.0 °F 12.8 °F 19.9 °F 75% 30.23 in 10.0 mi SW 21.9 mph 27.6 mph N/A   Clear
3:53 AM 30.0 °F 16.3 °F 21.0 °F 69% 30.21 in 10.0 mi SW 24.2 mph 28.8 mph N/A   Clear
4:53 AM 30.0 °F 18.3 °F 21.0 °F 69% 30.22 in 10.0 mi SW 17.3 mph - N/A   Overcast
5:53 AM 28.9 °F 16.9 °F 21.0 °F 72% 30.25 in 10.0 mi WSW 17.3 mph - N/A   Overcast
6:53 AM 28.9 °F 18.2 °F 21.0 °F 72% 30.28 in 10.0 mi SW 13.8 mph - N/A   Overcast
7:53 AM 30.0 °F 19.5 °F 21.9 °F 72% 30.30 in 10.0 mi SW 13.8 mph - N/A   Overcast
8:53 AM 32.0 °F 22.1 °F 24.1 °F 73% 30.32 in 10.0 mi SW 13.8 mph 24.2 mph N/A   Overcast
9:53 AM 28.0 °F 16.1 °F 23.0 °F 81% 30.34 in 10.0 mi SW 16.1 mph - N/A   Overcast
10:53 AM 28.0 °F 18.1 °F 23.0 °F 81% 30.35 in 10.0 mi SW 11.5 mph - N/A   Overcast
11:53 AM 30.9 °F 21.7 °F 25.0 °F 79% 30.33 in 10.0 mi SW 11.5 mph - N/A   Overcast
12:53 PM 34.0 °F 24.6 °F 27.0 °F 75% 30.32 in 10.0 mi SW 13.8 mph - N/A   Overcast
1:53 PM 35.1 °F 24.5 °F 27.0 °F 72% 30.30 in 10.0 mi SW 18.4 mph - N/A   Overcast
2:53 PM 36.0 °F 27.1 °F 27.0 °F 70% 30.27 in 10.0 mi SSW 13.8 mph - N/A   Scattered Clouds
3:53 PM 36.0 °F 27.1 °F 27.0 °F 70% 30.23 in 10.0 mi SW 13.8 mph - N/A   Clear
4:53 PM 34.0 °F 31.0 °F 27.0 °F 75% 30.22 in 10.0 mi WNW 3.5 mph - N/A   Clear
5:53 PM 30.0 °F 22.4 °F 23.0 °F 75% 30.20 in 10.0 mi WSW 8.1 mph - N/A   Clear
6:53 PM 30.9 °F 19.1 °F 24.1 °F 76% 30.19 in 10.0 mi SW 18.4 mph - N/A   Clear
7:53 PM 30.9 °F 19.4 °F 25.0 °F 79% 30.17 in 10.0 mi SW 17.3 mph - N/A   Clear
8:53 PM 32.0 °F 20.5 °F 25.0 °F 75% 30.15 in 10.0 mi SW 18.4 mph - N/A   Clear
9:53 PM 34.0 °F 25.0 °F 25.0 °F 70% 30.14 in 10.0 mi WSW 12.7 mph - N/A   Clear
10:53 PM 34.0 °F 22.4 °F 25.0 °F 70% 30.11 in 10.0 mi SW 20.7 mph - N/A   Clear
11:53 PM 35.1 °F 24.1 °F 25.0 °F 67% 30.09 in 10.0 mi SW 19.6 mph - N/A   Clear